When you browse on this site, cookies collect data to enhance your experience and personalize the content and advertising you see.
Visit our Privacy Policy to learn more. By continuing to use the site, you agree to this use of cookies and data.
  • En España
  • Lista de países
  • Para 7 días
  • Temperatura del agua
  • El tiempo en el mapa
  • Informadores
  • user-avatar
    Iniciar sesión

    Tiempo cada hora San Cristóbal

    Hoy, 28 Mayo, Jueves

    Tiempo Temperatura Precipitaciones Viento Presión Humedad
    00:00 +22°C° 0.1 mm 1 mps 672 mmHg 88%
    01:00 +22°C° 0.1 mm 1 mps 672 mmHg 87%
    02:00 +21°C° 0.1 mm 1 mps 672 mmHg 87%
    03:00 +21°C° 0.1 mm 1 mps 671 mmHg 88%
    04:00 +21°C° 0.1 mm 1 mps 671 mmHg 89%
    05:00 +21°C° 0.1 mm 1 mps 672 mmHg 88%
    06:00 +20°C° 0.1 mm 0 mps 672 mmHg 87%
    07:00 +20°C° 0.1 mm 0 mps 673 mmHg 86%
    08:00 +21°C° 0.3 mm 0 mps 673 mmHg 83%
    09:00 +24°C° 0.3 mm 1 mps 674 mmHg 81%
    10:00 +25°C° 0.3 mm 1 mps 674 mmHg 78%
    11:00 +26°C° 1.2 mm 1 mps 674 mmHg 76%
    12:00 +27°C° 1.2 mm 1 mps 673 mmHg 74%
    13:00 +27°C° 1.2 mm 1 mps 673 mmHg 72%
    14:00 +27°C° 0.8 mm 1 mps 672 mmHg 74%
    15:00 +26°C° 0.8 mm 1 mps 672 mmHg 77%
    16:00 +26°C° 0.8 mm 1 mps 671 mmHg 79%
    17:00 +25°C° 0.4 mm 1 mps 672 mmHg 85%
    18:00 +23°C° 0.4 mm 1 mps 672 mmHg 90%
    19:00 +20°C° 0.4 mm 0 mps 672 mmHg 95%
    20:00 +22°C° 0.8 mm 1 mps 672 mmHg 96%
    21:00 +22°C° 0.8 mm 1 mps 672 mmHg 96%
    22:00 +22°C° 0.8 mm 1 mps 673 mmHg 96%
    23:00 +21°C° 0.7 mm 1 mps 672 mmHg 96%

    Mañana, 29 Mayo, Viernes

    Tiempo Temperatura Precipitaciones Viento Presión Humedad
    00:00 +21°C° 0.7 mm 1 mps 672 mmHg 96%
    01:00 +21°C° 0.7 mm 1 mps 672 mmHg 96%
    02:00 +21°C° 0.1 mm 1 mps 672 mmHg 95%
    03:00 +21°C° 0.1 mm 1 mps 671 mmHg 95%
    04:00 +21°C° 0.1 mm 1 mps 671 mmHg 94%
    05:00 +21°C° 0.1 mm 1 mps 672 mmHg 93%
    06:00 +21°C° 0.1 mm 1 mps 672 mmHg 92%
    07:00 +22°C° 0.1 mm 1 mps 673 mmHg 91%
    08:00 +22°C° 0.2 mm 1 mps 673 mmHg 89%
    09:00 +23°C° 0.2 mm 1 mps 673 mmHg 87%
    10:00 +23°C° 0.2 mm 1 mps 673 mmHg 85%
    11:00 +24°C° 0.4 mm 1 mps 673 mmHg 80%
    12:00 +25°C° 0.4 mm 1 mps 673 mmHg 75%
    13:00 +26°C° 0.4 mm 2 mps 672 mmHg 70%
    14:00 +27°C° 0.2 mm 1 mps 672 mmHg 70%
    15:00 +27°C° 0.2 mm 1 mps 672 mmHg 69%
    16:00 +27°C° 0.2 mm 1 mps 671 mmHg 68%
    17:00 +25°C° 0.4 mm 1 mps 671 mmHg 76%
    18:00 +23°C° 0.4 mm 1 mps 671 mmHg 85%
    19:00 +22°C° 0.4 mm 1 mps 671 mmHg 93%
    20:00 +22°C° 0.3 mm 1 mps 672 mmHg 92%
    21:00 +21°C° 0.3 mm 1 mps 672 mmHg 91%
    22:00 +21°C° 0.3 mm 1 mps 673 mmHg 90%
    23:00 +21°C° 0.1 mm 1 mps 672 mmHg 90%

    Pasado mañana, 30 Mayo, Sábado

    Tiempo Temperatura Precipitaciones Viento Presión Humedad
    00:00 +21°C° 0.1 mm 1 mps 672 mmHg 89%
    01:00 +21°C° 0.1 mm 1 mps 672 mmHg 88%
    02:00 +20°C° 0 mm 1 mps 672 mmHg 88%
    03:00 +20°C° 0 mm 1 mps 672 mmHg 88%
    04:00 +20°C° 0 mm 1 mps 672 mmHg 88%
    05:00 +21°C° 0.1 mm 1 mps 672 mmHg 86%
    06:00 +22°C° 0.1 mm 1 mps 673 mmHg 84%
    07:00 +22°C° 0.1 mm 1 mps 673 mmHg 81%
    08:00 +24°C° 0.2 mm 1 mps 674 mmHg 77%
    09:00 +25°C° 0.2 mm 2 mps 674 mmHg 72%
    10:00 +26°C° 0.2 mm 2 mps 674 mmHg 67%
    11:00 +26°C° 0.5 mm 2 mps 674 mmHg 69%
    12:00 +27°C° 0.5 mm 2 mps 673 mmHg 70%
    13:00 +27°C° 0.5 mm 2 mps 673 mmHg 71%
    14:00 +26°C° 0.5 mm 2 mps 672 mmHg 73%
    15:00 +26°C° 0.5 mm 2 mps 672 mmHg 75%
    16:00 +25°C° 0.5 mm 2 mps 671 mmHg 77%
    17:00 +24°C° 0.3 mm 1 mps 671 mmHg 82%
    18:00 +23°C° 0.3 mm 1 mps 671 mmHg 88%
    19:00 +21°C° 0.3 mm 1 mps 671 mmHg 94%
    20:00 +21°C° 0.1 mm 1 mps 672 mmHg 92%
    21:00 +21°C° 0.1 mm 1 mps 672 mmHg 91%
    22:00 +19°C° 0.1 mm 0 mps 673 mmHg 89%
    23:00 +19°C° 0.2 mm 0 mps 673 mmHg 88%

    31 Mayo, Domingo

    Tiempo Temperatura Precipitaciones Viento Presión Humedad
    00:00 +20°C° 0.2 mm 0 mps 672 mmHg 87%
    01:00 +20°C° 0.2 mm 0 mps 672 mmHg 86%
    02:00 +19°C° 0.1 mm 0 mps 672 mmHg 87%
    03:00 +19°C° 0.1 mm 0 mps 672 mmHg 87%
    04:00 +19°C° 0.1 mm 0 mps 672 mmHg 88%
    05:00 +19°C° 0.1 mm 0 mps 672 mmHg 86%
    06:00 +22°C° 0.1 mm 1 mps 673 mmHg 84%
    07:00 +22°C° 0.1 mm 1 mps 673 mmHg 82%
    08:00 +24°C° 0.1 mm 1 mps 674 mmHg 78%
    09:00 +25°C° 0.1 mm 1 mps 674 mmHg 75%
    10:00 +26°C° 0.1 mm 1 mps 675 mmHg 71%
    11:00 +26°C° 0.7 mm 1 mps 674 mmHg 73%
    12:00 +26°C° 0.7 mm 1 mps 674 mmHg 75%
    13:00 +26°C° 0.7 mm 1 mps 673 mmHg 78%
    14:00 +25°C° 0.8 mm 1 mps 673 mmHg 80%
    15:00 +25°C° 0.8 mm 1 mps 672 mmHg 83%
    16:00 +24°C° 0.8 mm 1 mps 671 mmHg 85%
    17:00 +21°C° 0.5 mm 0 mps 672 mmHg 88%
    18:00 +20°C° 0.5 mm 0 mps 672 mmHg 91%
    19:00 +19°C° 0.5 mm 0 mps 672 mmHg 95%
    20:00 +19°C° 0.5 mm 0 mps 672 mmHg 94%
    21:00 +19°C° 0.5 mm 0 mps 673 mmHg 94%
    22:00 +21°C° 0.5 mm 1 mps 673 mmHg 94%
    23:00 +19°C° 0.3 mm 0 mps 673 mmHg 94%

    1 Junio, Lunes

    Tiempo Temperatura Precipitaciones Viento Presión Humedad
    00:00 +19°C° 0.3 mm 0 mps 672 mmHg 94%
    01:00 +19°C° 0.3 mm 0 mps 672 mmHg 94%
    02:00 +19°C° 0.1 mm 0 mps 672 mmHg 94%
    03:00 +21°C° 0.1 mm 1 mps 672 mmHg 94%
    04:00 +20°C° 0.1 mm 1 mps 671 mmHg 93%
    05:00 +21°C° 0.1 mm 1 mps 672 mmHg 91%
    06:00 +22°C° 0.1 mm 1 mps 672 mmHg 89%
    07:00 +22°C° 0.1 mm 1 mps 673 mmHg 86%
    08:00 +23°C° 0.3 mm 1 mps 674 mmHg 83%
    09:00 +24°C° 0.3 mm 1 mps 674 mmHg 79%
    10:00 +25°C° 0.3 mm 1 mps 675 mmHg 75%
    11:00 +26°C° 0.6 mm 1 mps 674 mmHg 75%
    12:00 +26°C° 0.6 mm 1 mps 673 mmHg 75%
    13:00 +26°C° 0.6 mm 1 mps 673 mmHg 75%
    14:00 +26°C° 0.5 mm 1 mps 672 mmHg 76%
    15:00 +25°C° 0.5 mm 1 mps 672 mmHg 77%
    16:00 +25°C° 0.5 mm 1 mps 671 mmHg 78%
    17:00 +24°C° 0.4 mm 1 mps 671 mmHg 83%
    18:00 +21°C° 0.4 mm 0 mps 672 mmHg 89%
    19:00 +20°C° 0.4 mm 0 mps 672 mmHg 94%
    20:00 +19°C° 0.2 mm 0 mps 672 mmHg 94%
    21:00 +19°C° 0.2 mm 0 mps 672 mmHg 93%
    22:00 +19°C° 0.2 mm 0 mps 673 mmHg 93%
    23:00 +19°C° 0 mm 0 mps 672 mmHg 91%

    2 Junio, Martes

    Tiempo Temperatura Precipitaciones Viento Presión Humedad
    00:00 +19°C° 0 mm 0 mps 672 mmHg 89%
    01:00 +19°C° 0 mm 0 mps 672 mmHg 87%
    02:00 +21°C° 0 mm 1 mps 672 mmHg 86%
    03:00 +21°C° 0 mm 1 mps 672 mmHg 86%
    04:00 +21°C° 0 mm 1 mps 671 mmHg 85%
    05:00 +21°C° 0 mm 1 mps 672 mmHg 83%
    06:00 +22°C° 0 mm 1 mps 673 mmHg 81%
    07:00 +21°C° 0 mm 0 mps 673 mmHg 79%
    08:00 +24°C° 0.1 mm 1 mps 673 mmHg 74%
    09:00 +26°C° 0.1 mm 1 mps 674 mmHg 68%
    10:00 +27°C° 0.1 mm 2 mps 674 mmHg 63%
    11:00 +28°C° 0.3 mm 2 mps 674 mmHg 60%
    12:00 +29°C° 0.3 mm 2 mps 673 mmHg 57%
    13:00 +29°C° 0.3 mm 2 mps 673 mmHg 54%
    14:00 +29°C° 0.4 mm 2 mps 672 mmHg 58%
    15:00 +28°C° 0.4 mm 2 mps 671 mmHg 61%
    16:00 +27°C° 0.4 mm 2 mps 671 mmHg 65%
    17:00 +26°C° 0.4 mm 1 mps 671 mmHg 74%
    18:00 +24°C° 0.4 mm 1 mps 671 mmHg 82%
    19:00 +22°C° 0.4 mm 1 mps 671 mmHg 91%
    20:00 +22°C° 0.1 mm 1 mps 671 mmHg 91%
    21:00 +21°C° 0.1 mm 1 mps 672 mmHg 92%
    22:00 +21°C° 0.1 mm 1 mps 672 mmHg 93%
    23:00 +21°C° 0.2 mm 1 mps 672 mmHg 93%
    Mostrar más